Cloud_Cover
98 19 98 100 100 97 77 47 69 100 100 100 98 75 31 96 77 0 0 0 0 0 0 0 0 0 0 0 0 2 5 1 15 100 100 100 98 100 92 98 55 100 100 53 96
70 100 100 81 100 100 100 75 99 63 100 86 3 4 1 6 0 0 0 0 0 0 0 0 0 0 0 0 0 0 0 2 75 100 100 100 100 100 99 83 38 98 7 7 28
75 100 100 100 100 100 100 100 14 100 63 100 60 17 24 0 0 0 0 0 0 0 0 0 0 0 0 0 0 0 0 5 6 100 100 100 100 97 100 100 91 95 100 28 98
100 100 100 100 38 41 100 100 96 42 100 100 100 15 17 0 20 0 0 0 0 0 0 0 0 0 0 0 0 0 0 0 3 58 99 11 96 91 100 100 100 100 95 6 72
100 74 18 89 97 88 89 100 100 100 98 100 99 49 5 0 0 0 0 0 0 0 0 0 0 0 0 0 0 0 0 0 0 0 6 2 6 5 100 100 100 100 100 100 100
100 100 100 100 100 100 100 100 100 100 100 100 100 81 31 0 1 0 0 0 0 0 0 0 0 0 0 0 0 0 0 0 0 0 0 1 70 100 86 100 100 100 90 100 100
100 100 100 100 100 100 100 96 76 76 99 100 100 100 100 6 0 0 0 0 0 0 0 0 0 0 0 0 0 0 0 0 5 5 5 5 5 0 34 27 100 100 100 100 100
88 100 100 100 100 100 100 96 76 76 63 100 100 100 100 100 7 0 0 0 0 0 0 0 0 0 0 0 0 0 0 0 5 5 5 40 5 5 5 12 22 100 100 100 100
5 88 100 100 100 100 100 60 100 100 100 100 100 100 100 100 95 0 0 0 0 0 0 0 0 0 0 0 0 0 0 0 5 24 79 9 30 65 78 5 5 3 100 100 100
5 5 100 100 100 100 100 91 100 100 98 100 100 99 99 100 100 97 0 0 0 0 0 0 0 0 0 0 0 0 0 0 4 5 5 53 94 68 41 5 5 5 70 60 100
4 1 2 100 100 100 76 100 98 90 100 100 100 100 100 100 100 100 26 0 0 0 0 0 0 0 0 0 0 0 5 5 4 0 0 5 5 80 99 11 5 5 5 6 5
5 0 0 56 100 100 100 100 100 100 88 100 100 100 100 100 100 100 100 33 0 0 0 0 0 0 0 0 0 0 1 0 0 0 0 16 96 95 100 5 5 71 71 100 16
5 3 0 16 100 100 100 100 96 100 100 100 100 100 100 100 100 100 100 100 49 0 4 0 9 3 0 2 0 0 0 0 0 0 0 0 3 4 42 40 5 6 6 19 92
42 5 4 69 73 100 100 100 100 100 100 100 100 100 100 100 100 100 100 100 100 92 5 15 4 57 0 0 0 0 0 0 0 0 0 0 0 0 0 0 3 5 5 5 5
100 52 2 34 89 100 100 100 100 100 100 96 100 100 100 100 100 100 100 100 100 100 100 87 6 5 2 0 0 0 0 0 1 0 0 0 0 0 0 1 1 0 0 0 3
100 60 5 5 16 100 100 100 100 100 100 100 93 100 100 100 100 100 100 100 100 100 100 100 100 73 6 0 0 0 0 0 3 0 0 0 0 0 0 0 28 6 5 1 0
100 97 38 5 5 29 100 100 100 99 92 100 100 100 100 100 100 100 100 100 100 100 100 100 100 100 100 91 19 0 0 0 3 2 0 0 0 0 0 0 25 54 90 12 0
100 100 100 6 5 5 5 95 100 100 100 71 100 100 100 100 100 100 100 100 97 100 100 100 100 100 100 100 100 100 99 83 23 15 82 99 96 100 94 100 99 99 4 0 0
100 100 100 100 16 5 7 96 100 96 99 94 65 100 100 100 100 100 100 100 100 100 100 99 100 100 100 100 100 100 86 100 100 98 14 58 36 100 100 92 95 100 100 98 9
100 100 100 100 63 5 14 73 99 5 14 80 79 100 100 100 100 100 100 100 100 100 100 91 54 62 100 100 100 100 100 100 100 78 36 53 100 100 100 55 100 99 96 94 64
100 100 100 100 100 98 54 99 100 16 5 5 62 83 100 100 100 100 100 100 100 100 100 100 83 94 13 20 99 100 100 100 100 96 95 100 100 100 100 100 100 100 98 53 18
100 100 100 100 100 100 100 99 5 5 5 5 5 6 97 100 99 100 100 100 100 100 100 100 100 83 100 24 99 9 27 100 100 56 99 93 35 100 100 100 100 100 100 100 100
100 100 100 100 100 100 100 11 14 17 5 5 5 61 10 100 100 100 100 77 100 97 95 57 97 67 32 100 100 100 100 99 100 100 31 100 32 100 92 100 100 100 100 98 100
100 100 100 100 100 100 100 100 80 83 5 5 5 5 5 5 20 88 100 100 67 29 10 30 10 62 81 32 94 100 100 94 100 100 95 33 16 100 100 83 100 100 99 100 100
100 100 100 100 100 100 100 100 100 100 17 27 5 75 48 62 5 16 100 98 100 98 57 32 48 20 84 76 53 45 98 98 100 100 67 29 100 52 100 75 58 100 71 68 94
100 100 100 100 100 100 100 56 36 82 60 6 7 14 22 99 79 99 77 97 76 100 85 71 56 15 72 90 87 83 92 100 100 100 94 100 44 100 100 73 28 76 99 89 98
100 100 100 100 100 97 63 17 5 8 5 10 16 74 53 80 92 10 80 94 100 52 92 64 87 95 46 100 100 93 100 100 100 100 100 95 81 100 100 9 51 93 100 100 76